Hauptseite
METAR-TAF:

METAR-TAF

Flughäfen :

Prato Nevoso, Italien

Monte Malanotte

Breite: 44-15N, Länge: 007-48E, Höhe: 1741 m

Beobachtung

Neuester Wetterbericht von vor 7 Stunden und 43 Minuten, um 17:55 UTC
Wind 10 kt aus Südwest
Temperatur 3°C
Luftfeuchtigkeit 81%
Luftdruck 1009 hPa
Sichtweite 10 km oder mehr
keine Wolken unter 1500 m und keine Kumulonimbus oder Gewitterwolken

METAR: LIMY 241755Z 22010KT CAVOK 03/00 Q1009 RMK OVC OVC056 VAL FOSCHIA VIS MIN 9999

Zeit: 02:38 (01:38 UTC)


TAF: fehlend

Wetterbeobachtungen und Prognosen von mehr als 4000 Flughäfen (METAR und TAF Bericht).

Die verfügbaren Stationen werden durch gelbe und rote Markierungen auf der Karte dargestellt.

Führen Sie die Maus auf sie, um den Namen der Station zu sehen.

Darauf klicken, um die Beobachtung von Wetterbeobachtungen und Prognosen zu sehen.

Um die Karte zu ändern : klicken Sie auf den grünen Tasten mit einem schwarzen Kreuz Zum Vergrößern, auf den grünen Button mit einem Gedankenstrich zu verkleinern, oder auf die grünen Pfeile für benachbarte Karten.


METAR-TAF: